map of CWB home
CWB - Airport
Location
City:  Curitiba, Paraná, Brazil
Name:Afonso Pena International Airport
ICAO:SBCT
IATA:CWB

Details
Type:Airport (Aerodrome, Airfield)
Use:Public/Civil, International (customs port of entry)
Latitude:25°31'43"S (-25.528474)
Longitude:49°10'33"W (-49.175774)
Datum:WGS 1984
Elevation:2988 ft (911 m)
Variation:19.75°W (WMM2015 magnetic declination)
-0.14° annual change
Runways:2
Longest:7267 × 148 ft (2215 × 45 m), paved

Time
Time Zone:UTC-3 (DST-2)
Local Time:

Weather
METAR:SBCT 120700Z 04004KT 9999 FEW040 19/18 Q1020
TAF:SBCT 120030Z 1206/1306 08007KT 9999 FEW015 TN18/1208Z TX33/1218Z
BECMG 1211/1213 34008KT FEW035
BECMG 1222/1224 09005KT SCT010
RMK PEB

Related Locations
Nearby:
Farthest:MMD: 12407 mi / 19968 km
Minamidaito [Minami Daito Airport], Minamidaito Jima, 47, JP

Find:

   beyond  
but within

Other Information
Maps:
NOTAMs:
Links:
Sources:

  
  • flag of Brazil
  • flag of Paraná
  • flag of Curitiba
  

Sectional Chart

Flight Planning
at skyvector.com

Satellite Image

Google Maps Satellite view

 

Copyright © 2004-2018 Karl L. Swartz. All rights reserved.
The Great Circle Mapper name and logo are trademarks of the Great Circle Mapper.
All other trademarks mentioned herein belong to their respective owners.
Please see credits for attibutions and further copyright information.

  Follow gcmap on Facebook Follow gcmap on Twitter Follow gcmap on Google+ GCmap on LinkedIn

hCard Microformat

Geo Microformat